2018-084K (43681 NORAD) Tracking and Keplerian Element Data

This shows tracking and keplerian element data for the satellite.

Feedback or suggestion? Click here.




ElementValue
Catalog43681
Name2018-084K
Epoch Orbit437
Epoch Day331.86851868
Epoch Year2018
RAAN82.2345
Inclination97.8389
Eccentricity0.0007967
Argument of Perigee251.8963
Mean Anonmoly108.1399
Mean Motion14.91603339
Decay Rate4.89E-06
L11 43681U 18084K 18331.86851868 .00000489 00000-0 54427-4 0 9996
L22 43681 97.8389 82.2345 0007967 251.8963 108.1399 14.91603339 4379

Live tracking and technical data element details for 2018-084K (NORAD 43681). 2018-084K can be tracked NOW for your location showing map with azimuth and elevation plus other details from your city location.

Track the satellite on the map from your city or location and see movement details for azimuth, elevation, latitude, longitude, range, height, and movement on the map or in text.







IsCatalogInMostPopularTable: catalog: 43681, numindb: 135
Update: records affected: 1



GetName: 43681 2018-084K

Hit Count: updated at: Mon, 22 Jul 2019 04:22:27 GMT